RH
99 100 100 101 100 101 100 100 100 100 101 99 99 100 100 100 99 100 99 96 94 94 94 92 93 94 97 100 96 96 96 86 68 63 53 28 21 18 12 12 14 21 22 21 25 25 22 19 18 15 11 10 10 11 13 13 11 10 10 11 10 8 7 6 6 6 6 8 7 7 7 6 15 34 42 42 44 45 49 51 49 47 48 47 47 54 73 88
98 100 100 100 100 101 100 100 100 100 101 100 100 100 100 101 98 97 99 100 98 95 97 97 97 97 99 99 96 98 93 78 63 52 40 23 19 18 12 12 15 21 22 20 21 18 16 15 14 12 9 9 10 11 13 13 12 10 9 10 9 7 6 6 6 6 7 8 8 7 7 6 10 27 41 39 42 46 46 48 48 49 53 52 53 63 79 87
97 100 101 101 101 100 101 100 100 100 101 101 100 100 100 101 99 98 97 100 99 99 101 98 99 99 98 100 95 93 87 69 50 38 34 28 23 19 14 13 16 22 21 18 16 14 13 12 12 11 8 9 10 11 12 13 13 9 9 11 8 7 7 7 7 7 8 8 8 7 6 7 7 18 33 32 34 40 36 39 44 47 54 56 56 64 78 85
97 97 99 101 100 100 100 100 101 100 100 101 100 101 100 101 100 100 99 99 100 100 100 98 100 99 98 98 86 83 79 55 34 30 33 30 24 19 13 14 18 21 21 17 14 13 12 11 11 9 8 9 10 11 11 12 12 10 11 9 7 7 8 6 7 8 8 8 8 7 7 7 6 11 21 24 27 30 25 26 32 38 48 56 59 64 74 83
97 96 97 100 101 100 99 100 101 100 101 101 100 101 100 101 100 100 101 100 101 100 101 101 99 99 98 86 74 80 68 34 24 30 30 25 22 19 13 14 18 21 22 18 13 13 12 11 10 9 9 8 11 12 10 11 11 11 11 8 8 9 7 6 7 8 8 9 8 8 8 6 7 9 13 18 19 20 20 24 30 33 41 53 58 64 72 79
99 96 95 97 97 98 100 101 101 100 101 100 100 101 100 101 100 101 100 100 101 99 101 100 99 99 84 64 67 79 55 19 21 25 20 22 22 17 13 14 19 23 21 16 12 12 11 11 10 11 9 7 11 11 9 11 11 11 10 8 10 9 8 7 7 8 8 8 8 8 7 6 7 7 9 14 16 19 25 30 35 35 39 50 57 62 69 74
100 99 97 98 95 97 101 100 100 101 100 101 101 100 100 101 100 101 100 100 100 99 101 99 99 87 59 53 69 70 38 13 20 24 20 26 22 13 15 17 19 23 19 13 11 10 10 11 10 10 8 8 10 9 9 11 11 10 9 9 10 9 8 8 7 8 8 8 8 7 6 7 6 7 12 14 16 25 33 34 35 37 42 52 57 62 67 70
96 98 99 99 98 98 101 100 100 101 100 100 100 101 101 100 101 100 100 101 100 100 99 99 99 73 49 61 61 38 19 14 25 31 28 26 20 15 21 25 22 21 16 12 11 10 10 10 10 9 9 9 9 9 10 12 11 10 9 9 10 9 9 8 7 8 8 7 7 7 7 7 6 7 11 11 18 33 38 36 35 39 47 54 58 64 67 69
92 94 96 98 98 98 99 101 100 99 100 100 99 100 100 100 100 100 100 101 100 100 97 100 95 66 57 70 48 17 14 21 28 37 42 34 18 18 27 29 24 18 14 13 12 10 10 10 9 9 9 9 9 10 11 11 10 10 9 8 9 9 8 8 8 7 7 7 7 8 7 7 8 9 7 10 27 40 41 39 38 43 51 55 58 65 68 70
92 92 94 96 97 95 95 98 99 100 100 100 100 100 100 100 99 98 100 101 100 99 97 98 84 61 64 64 36 16 18 26 29 39 56 48 25 23 29 26 21 17 14 14 12 11 10 9 9 9 10 10 9 9 10 10 8 9 8 8 9 8 8 8 7 7 7 7 7 7 7 7 13 13 7 16 34 41 42 43 43 46 52 54 56 63 68 71
94 94 95 96 98 97 96 96 97 99 100 100 101 100 100 100 99 98 100 100 100 99 99 97 82 68 66 51 27 15 18 27 31 38 52 50 32 26 26 23 21 17 14 14 13 12 10 10 11 10 11 10 9 10 10 9 7 8 8 8 9 7 8 8 7 8 7 7 7 7 7 10 18 14 9 24 39 39 41 46 47 47 50 53 55 62 69 72
87 84 83 86 93 98 99 98 97 97 99 101 100 100 101 99 98 98 99 98 99 100 99 95 84 77 66 45 27 18 17 24 29 36 46 45 34 25 25 23 21 17 16 15 13 13 11 11 13 12 12 10 9 10 9 9 8 9 9 8 8 7 8 7 7 7 7 7 6 7 8 11 17 11 11 30 39 39 42 45 48 49 49 52 56 62 67 70
77 73 74 73 79 90 95 98 100 96 97 100 101 100 100 100 97 95 97 97 98 101 99 91 82 78 67 39 22 19 19 23 27 33 41 41 32 27 28 26 23 20 18 16 14 15 14 14 16 14 13 11 10 11 10 9 9 9 9 8 8 8 8 6 7 7 7 7 5 7 8 9 12 7 14 31 36 39 43 44 46 50 50 51 58 62 66 72
82 78 73 64 66 81 90 93 97 99 100 98 99 101 100 100 98 96 98 97 99 101 98 95 87 80 65 36 20 22 23 27 30 32 36 36 28 27 29 27 24 22 20 18 16 16 15 16 18 14 13 13 12 11 10 10 10 8 9 9 8 9 8 5 7 7 7 7 5 7 8 7 7 8 20 31 32 35 37 40 45 49 50 52 58 63 67 73
85 79 70 57 56 71 84 89 89 96 97 84 83 93 95 96 98 99 99 98 100 98 94 94 88 75 55 33 25 28 29 31 32 31 31 29 23 22 25 25 23 21 21 19 15 15 14 16 17 14 13 13 13 12 11 11 9 8 10 11 8 8 8 6 7 7 6 7 6 7 8 6 5 11 26 34 34 34 31 37 46 50 53 54 58 62 67 72
73 74 73 62 53 57 74 88 89 91 88 64 56 70 79 84 90 96 99 98 99 98 93 82 74 68 49 28 24 26 28 29 28 29 30 25 20 18 21 23 21 21 21 17 15 14 13 14 15 14 13 13 13 12 10 11 11 10 10 11 10 8 8 7 7 7 6 7 6 7 7 6 6 11 27 36 35 34 30 35 47 54 57 57 58 62 68 72
63 63 71 68 57 51 62 84 92 92 84 53 38 60 77 78 85 95 99 101 98 94 86 69 64 66 47 25 20 22 21 21 24 29 31 27 20 17 19 20 18 18 17 15 15 13 12 14 15 15 14 13 11 11 12 14 14 12 10 11 12 10 7 7 9 8 8 8 7 7 6 7 8 11 26 36 34 34 31 35 47 53 57 57 56 61 69 75
66 60 60 57 54 54 62 78 90 95 86 51 37 64 82 82 93 98 95 97 95 89 83 74 68 57 37 23 19 19 17 19 24 28 31 28 19 16 16 15 15 15 14 14 13 13 14 15 15 15 14 14 13 11 14 14 13 14 12 12 12 11 8 8 9 9 9 9 7 8 8 7 8 12 25 34 35 36 36 39 46 50 56 57 55 61 67 73
77 71 65 57 52 58 69 77 84 93 85 56 52 79 91 93 100 93 87 86 77 65 58 59 55 38 25 21 17 17 19 21 24 25 27 23 17 15 13 13 13 12 13 15 15 14 16 17 17 16 15 15 13 11 12 11 11 12 11 11 11 11 10 8 10 11 11 11 9 9 10 8 8 10 22 34 39 42 43 45 49 48 53 57 56 59 64 68
88 82 79 74 57 53 67 72 74 81 79 72 79 88 83 75 68 64 73 73 56 39 29 30 34 28 23 21 18 20 22 22 21 21 23 19 15 14 13 12 12 13 14 16 18 17 16 19 18 16 14 14 13 13 14 13 13 12 11 11 10 11 10 8 11 13 12 13 11 10 11 10 8 9 22 37 44 45 47 51 51 48 51 55 56 59 64 67
89 84 83 85 67 50 57 63 62 58 62 82 90 67 43 34 32 39 48 46 37 31 28 25 25 25 24 22 21 21 21 21 19 19 22 18 13 14 14 13 14 16 16 15 19 20 18 20 18 15 15 15 16 18 19 18 16 14 12 12 11 11 10 10 12 13 13 15 13 11 12 11 10 14 25 40 46 46 45 49 52 50 50 52 54 58 63 65
79 76 77 81 69 49 48 56 51 39 51 84 83 47 26 27 35 39 36 34 30 28 29 28 26 27 26 25 25 25 24 24 21 18 22 18 13 14 14 14 15 16 17 18 20 21 20 19 16 15 17 19 20 20 19 19 17 15 13 13 12 10 10 13 15 15 15 16 14 13 12 11 17 23 30 38 42 43 43 45 49 49 50 50 51 55 61 66
64 59 66 73 64 45 42 47 38 34 57 79 63 34 29 34 36 38 39 39 33 25 26 28 29 29 29 28 28 29 27 24 22 19 21 19 14 13 14 15 15 15 18 18 19 21 21 17 14 15 18 19 22 22 20 19 17 15 13 13 13 11 11 14 17 18 18 18 18 15 13 18 27 32 38 42 41 42 43 45 47 46 49 51 49 52 58 65
55 49 55 65 64 44 32 35 41 56 75 73 49 29 31 35 34 40 43 40 33 26 25 26 28 29 27 29 30 29 26 22 21 19 19 18 13 13 13 14 15 16 17 16 17 18 17 15 14 15 17 17 21 24 21 18 14 14 15 14 12 12 11 12 17 21 20 21 22 16 13 21 29 32 41 51 52 46 44 46 47 46 46 49 50 54 58 61
60 58 51 59 65 43 27 38 56 73 71 53 40 32 34 36 37 46 46 38 32 27 29 29 29 29 26 29 29 26 23 21 20 18 17 16 12 13 14 13 14 16 15 14 16 15 14 18 17 16 17 16 19 22 19 17 13 13 17 15 13 13 13 14 17 20 19 20 22 20 16 19 24 26 34 50 55 48 45 47 49 48 47 49 51 55 59 59
66 73 66 68 68 40 26 46 62 64 47 28 30 35 36 36 40 51 46 38 31 23 29 34 31 30 28 27 26 22 22 22 17 16 17 15 11 12 14 13 14 15 13 13 15 14 15 19 17 16 19 17 17 18 16 17 14 13 15 13 14 14 15 17 17 17 17 18 21 24 20 18 21 21 29 46 52 48 49 51 49 49 49 49 49 51 55 56
68 86 80 75 80 60 43 50 52 44 29 20 29 36 34 33 43 54 47 35 27 22 27 29 28 31 28 25 23 20 22 21 17 17 17 14 12 11 13 14 14 14 14 15 17 16 15 18 17 18 20 18 17 16 16 17 15 15 16 13 13 14 16 18 17 15 15 17 21 21 17 17 17 18 28 41 45 47 51 52 50 48 48 50 50 50 51 53
73 91 87 78 87 81 68 67 57 37 23 22 31 35 30 36 50 55 45 32 23 22 25 23 24 27 25 24 22 19 18 18 19 20 16 13 13 12 13 13 12 12 14 15 18 18 16 18 18 18 19 17 15 13 15 16 15 18 19 14 13 13 15 16 15 15 15 18 19 17 15 16 16 20 28 34 38 43 47 48 46 44 44 46 48 50 51 53
79 95 95 82 74 66 73 87 70 39 27 27 29 29 28 44 55 43 33 29 21 20 21 21 24 24 23 25 24 21 18 17 19 18 15 14 13 12 13 13 11 12 13 13 16 19 18 17 16 15 16 15 14 14 15 15 16 19 17 14 14 13 14 16 15 14 17 21 19 19 20 17 16 18 21 28 33 35 38 40 39 38 40 42 45 49 51 52
78 94 96 86 72 66 80 90 61 32 33 32 26 31 40 50 49 35 33 29 21 20 18 19 23 21 23 27 25 23 19 16 17 17 16 15 13 13 12 12 11 12 14 13 14 16 16 18 17 15 14 13 14 17 17 15 17 18 15 13 14 13 15 17 15 14 20 22 19 21 24 21 18 16 14 23 29 27 27 29 29 31 33 37 43 47 49 50
65 77 85 90 88 78 68 59 42 35 44 37 26 39 51 45 36 37 41 26 16 21 19 19 21 18 22 24 22 22 20 17 17 18 19 16 15 15 14 15 14 15 17 16 16 14 13 16 16 14 14 13 14 16 18 17 16 17 14 13 15 16 17 17 16 19 22 23 22 22 25 23 19 17 15 21 28 29 29 28 30 31 29 31 37 42 45 47
51 50 58 73 88 88 60 36 37 43 43 33 28 37 41 38 38 39 33 19 16 22 18 19 21 17 20 21 19 21 20 19 18 18 19 17 18 17 15 18 17 19 21 18 18 17 15 14 12 13 14 13 13 15 17 17 16 17 14 15 18 18 20 20 19 21 21 23 26 25 26 23 18 20 22 26 33 38 40 40 40 39 37 36 32 35 44 46
41 35 39 49 68 83 66 50 55 53 44 37 32 33 31 36 42 34 22 16 20 23 18 18 18 15 18 20 19 18 18 20 18 18 19 16 19 19 15 15 15 17 21 19 20 20 19 15 12 14 15 13 13 15 17 18 17 17 15 16 18 18 23 25 21 20 20 24 26 25 27 22 16 23 30 34 41 44 45 47 48 47 48 46 34 31 42 45
35 33 41 51 60 69 65 69 74 63 54 47 33 33 39 40 36 30 24 16 16 21 19 18 17 14 16 18 18 18 19 21 17 17 20 18 21 22 18 17 15 15 19 21 21 20 21 20 15 15 15 13 13 12 14 16 16 15 12 13 16 16 20 23 19 17 17 22 26 27 27 20 18 26 34 39 43 44 44 47 51 51 49 48 40 37 43 48
38 41 48 59 65 66 66 76 80 67 56 43 29 34 45 41 28 25 25 15 11 16 16 16 15 14 17 17 16 16 18 20 18 18 20 20 22 23 20 19 17 16 19 23 24 20 21 20 14 14 14 13 13 11 11 13 16 16 11 13 16 14 15 21 27 29 24 22 26 27 23 19 21 27 33 38 41 42 45 47 50 52 50 48 48 48 49 50
52 59 59 62 65 68 71 78 82 72 53 35 29 35 37 30 20 16 18 17 14 14 13 14 14 15 17 18 18 18 18 20 19 19 20 20 20 20 19 18 17 17 18 22 24 22 22 20 14 14 15 13 12 12 11 13 16 17 15 15 16 12 13 20 30 35 30 23 23 25 23 19 21 25 29 36 40 42 46 47 50 54 54 53 53 53 51 50
68 65 58 56 57 64 72 78 82 69 45 32 33 34 27 21 15 13 18 20 17 15 14 14 13 15 17 18 19 18 18 20 19 20 21 21 20 19 18 18 16 16 16 18 21 21 21 20 16 14 15 14 12 12 11 11 13 16 17 15 14 15 15 17 23 27 25 23 23 25 24 20 20 24 29 34 42 47 47 48 52 54 54 53 52 51 51 52
78 65 56 53 57 70 79 82 76 54 31 30 36 32 26 22 15 15 21 22 19 18 16 14 15 16 17 20 21 19 19 21 20 21 21 21 23 21 17 18 17 15 14 15 19 21 20 21 18 14 14 14 11 12 14 12 11 13 14 12 14 19 19 18 23 25 25 25 24 25 24 19 17 23 30 34 43 52 52 50 51 51 49 50 53 55 55 56
75 57 51 54 60 75 86 84 65 37 23 29 35 32 28 25 18 18 23 24 21 20 18 17 16 17 18 19 21 21 20 21 21 21 21 22 27 25 18 18 18 17 16 15 18 20 21 24 23 16 14 14 12 14 16 14 13 12 12 12 13 18 19 19 21 21 23 24 24 26 25 18 21 31 37 38 42 50 54 52 50 50 51 53 57 59 57 56
61 46 46 56 61 67 77 75 54 31 23 24 27 28 27 25 21 20 23 23 21 20 20 20 18 19 20 18 19 20 21 23 24 23 22 22 26 27 21 19 19 19 17 16 18 20 23 27 26 18 14 15 15 15 15 14 14 14 15 16 16 17 18 20 20 18 19 20 23 27 23 24 40 48 45 45 47 48 52 53 53 53 54 56 58 57 55 56
50 43 45 54 58 59 65 61 43 30 23 20 24 26 28 29 24 21 22 24 22 19 19 21 19 19 20 18 18 19 20 24 25 23 23 21 22 25 24 22 21 19 19 19 20 23 24 24 24 22 18 17 16 15 14 14 14 14 15 15 15 17 17 20 22 20 18 18 20 22 20 32 53 53 47 52 52 47 50 54 55 55 55 57 59 57 54 56
45 44 45 51 56 59 59 49 40 35 27 22 25 27 30 32 26 21 23 23 21 18 18 20 19 19 19 17 17 18 19 22 23 27 27 22 22 27 29 27 21 18 21 22 23 31 33 26 23 24 20 16 16 16 16 15 14 14 15 14 14 15 16 19 21 21 21 19 20 19 19 37 57 53 51 57 52 45 49 54 56 56 57 58 58 58 58 58
42 44 44 50 58 61 54 42 38 37 31 31 31 26 27 30 25 21 21 21 20 19 20 20 18 19 20 19 18 17 19 21 22 26 27 24 26 31 33 32 26 22 23 23 27 35 35 27 26 26 20 15 15 15 15 15 14 14 16 19 18 16 19 22 20 21 22 20 22 20 20 40 59 56 53 55 50 46 49 54 58 58 60 61 60 62 62 62
42 45 40 46 58 59 53 47 44 36 33 39 38 30 28 28 27 26 23 24 25 24 25 24 22 23 24 24 23 20 22 25 23 23 24 25 28 29 29 32 32 29 29 32 34 34 30 30 32 29 25 24 22 19 18 16 15 18 22 26 24 21 25 26 21 22 22 20 22 19 23 46 61 56 51 50 50 52 53 57 61 62 65 66 65 65 63 63
41 44 38 43 50 51 52 56 55 47 41 43 42 39 36 31 31 31 27 28 28 27 30 30 27 27 26 27 29 25 24 28 28 27 26 25 26 25 26 30 29 27 34 42 38 33 37 43 42 36 34 35 31 27 26 21 19 23 27 29 27 27 31 30 21 19 21 23 23 16 27 55 63 53 50 54 60 66 64 61 61 62 65 65 63 63 62 61
40 44 43 45 47 47 51 52 53 54 51 48 47 45 41 36 33 29 28 32 29 26 30 29 26 30 31 31 34 32 28 27 28 30 28 25 26 26 27 30 27 30 45 49 38 34 43 50 49 45 41 36 32 29 28 25 24 25 26 28 29 30 35 33 22 20 23 26 25 23 37 61 63 56 60 66 70 74 71 65 64 64 65 63 60 59 57 56
41 50 53 53 52 52 55 58 57 57 55 50 51 50 43 38 36 32 30 31 29 28 30 28 26 32 38 39 40 39 34 29 29 33 30 26 25 25 26 28 31 41 52 46 33 36 47 51 52 49 41 35 32 29 26 25 27 29 30 32 32 31 34 35 32 34 34 27 26 35 49 60 61 62 71 75 74 75 74 71 68 67 64 60 56 53 52 52
42 50 50 54 59 60 67 75 68 62 62 55 47 49 45 38 39 40 35 31 28 28 33 35 31 29 35 40 42 44 42 37 38 41 36 29 27 27 25 24 27 36 41 36 34 40 47 52 53 49 42 37 34 32 30 28 30 32 33 36 36 34 37 43 46 47 45 41 40 48 58 62 62 66 73 75 74 75 74 69 65 63 58 54 52 50 49 49
42 46 45 49 58 60 68 80 74 68 76 70 53 50 48 43 42 38 34 36 35 31 33 40 36 27 29 35 39 47 51 46 45 48 45 42 36 31 30 28 25 26 28 33 41 42 44 52 55 48 43 42 41 41 40 36 37 38 37 37 37 37 40 47 51 50 51 56 58 59 67 69 65 66 70 71 70 68 64 59 56 55 53 50 48 47 47 46
46 49 49 43 46 51 55 68 74 71 76 77 68 59 50 49 49 37 30 40 46 40 36 39 36 28 28 32 36 45 49 48 49 49 48 49 42 35 36 34 28 26 26 33 44 44 45 54 56 47 45 49 51 51 49 46 44 43 44 45 44 42 43 47 54 54 53 60 64 66 74 76 66 61 63 62 60 57 53 51 50 48 46 45 44 43 42 42
58 60 62 47 41 48 46 51 63 70 74 79 83 77 65 58 55 44 34 32 37 40 39 40 40 33 29 33 37 40 40 42 45 43 39 41 37 32 33 31 29 31 30 33 41 43 44 52 55 49 49 52 53 53 52 51 51 49 53 59 57 54 56 56 58 60 59 60 62 60 66 71 64 56 54 52 50 49 48 46 44 42 39 39 40 39 38 37
62 61 64 49 39 44 42 39 48 58 65 70 77 85 83 68 53 48 46 37 30 32 35 38 42 37 34 39 41 38 37 37 37 34 31 31 29 27 28 26 26 30 32 34 38 38 42 51 53 49 48 49 48 48 49 53 58 58 58 66 67 63 63 63 62 65 66 61 55 51 56 63 58 51 50 49 48 49 50 47 43 41 41 40 40 40 39 37
Wind_Speed
12 11 11 10 10 9 9 9 9 9 9 8 8 8 9 9 9 9 8 8 9 10 11 10 11 11 12 12 11 14 16 16 13 12 14 12 9 10 6 5 15 18 17 15 15 17 14 14 13 12 10 8 7 6 8 7 5 5 6 7 7 8 6 4 6 2 1 5 5 4 5 5 3 4 3 5 5 8 7 4 5 4 3 5 9 17 21 20
13 12 12 10 10 9 9 9 9 9 9 8 8 9 9 9 8 8 9 9 8 9 10 10 10 11 11 11 11 14 16 15 15 16 16 11 7 8 8 9 16 21 18 16 18 18 15 14 14 13 10 7 7 6 8 7 6 7 6 7 8 7 2 1 2 1 0 2 4 4 4 6 3 4 4 6 8 9 8 7 7 6 7 8 12 17 20 20
14 14 13 11 10 10 9 9 9 9 9 9 9 9 9 9 8 8 9 9 9 9 10 10 10 11 11 11 12 13 14 14 13 9 6 4 7 10 9 13 19 21 17 14 17 16 14 13 14 14 10 8 7 8 9 7 7 8 7 7 8 5 2 2 2 1 1 3 3 2 3 4 4 1 4 5 8 10 9 9 8 8 9 10 13 16 19 19
14 14 14 12 11 10 10 9 9 9 9 9 9 8 8 9 9 8 9 9 9 9 10 10 10 10 10 11 12 11 12 12 4 4 2 2 6 12 12 16 21 21 13 9 13 12 11 12 14 13 10 8 7 8 10 8 7 6 7 9 5 3 5 5 4 2 1 3 3 3 2 0 3 2 3 5 9 10 8 8 6 7 11 13 14 15 18 18
14 14 14 13 12 11 11 10 9 9 9 9 9 8 8 8 8 8 9 8 9 9 9 10 10 10 10 10 11 9 8 6 3 6 3 4 3 13 14 17 22 20 10 8 11 10 10 11 12 12 9 8 9 9 10 11 7 5 9 11 4 2 6 4 4 2 1 2 3 3 3 0 2 3 3 6 8 5 3 3 1 3 10 15 15 15 17 16
14 14 14 13 13 12 11 10 10 9 9 9 9 8 8 8 8 8 9 8 9 9 9 9 9 10 9 9 9 7 7 2 4 2 4 5 4 14 14 17 23 18 10 11 11 11 12 12 11 11 9 9 10 11 10 11 9 7 9 10 6 6 6 3 2 2 2 4 4 3 3 2 4 4 2 7 5 4 4 3 1 2 8 13 14 15 16 15
15 14 14 13 13 13 12 11 10 10 9 9 9 8 8 8 8 8 8 8 8 8 8 9 9 8 7 8 6 7 8 3 3 2 5 2 8 15 15 19 22 16 13 13 12 11 11 12 13 10 9 9 10 12 10 10 10 10 8 8 9 8 8 7 5 4 4 6 5 3 4 5 6 3 1 7 5 3 4 4 2 4 8 12 13 13 14 14
15 14 14 14 13 13 13 12 11 10 9 8 8 8 8 8 8 8 8 8 8 8 8 8 9 6 6 7 6 6 7 1 5 4 4 4 13 18 18 19 18 15 14 14 12 11 10 12 13 9 10 9 9 11 10 10 11 13 11 7 7 7 9 9 8 7 7 7 5 4 7 7 5 4 4 7 4 1 2 2 4 7 10 11 11 12 12 12
14 14 14 14 13 13 13 13 12 11 9 8 8 8 8 7 8 7 7 7 7 8 7 8 8 5 6 6 7 6 2 5 8 3 2 8 17 21 19 16 16 15 13 12 10 10 8 10 11 9 8 7 8 10 10 10 9 12 14 8 7 8 9 9 9 10 9 6 4 7 10 6 3 4 7 7 4 3 2 4 7 10 11 11 10 11 12 12
15 15 14 14 14 13 13 13 13 12 10 9 8 7 7 7 7 7 7 7 7 7 6 7 6 4 4 6 8 5 4 6 8 6 4 10 19 22 17 13 16 15 11 11 10 10 8 8 8 6 7 5 8 9 11 11 3 6 13 10 8 10 8 9 10 10 8 6 7 10 9 5 4 5 7 6 6 4 6 7 9 10 10 10 10 11 12 11
15 15 14 14 14 14 13 13 13 12 11 9 8 8 7 7 7 7 7 7 6 5 5 6 4 3 5 6 7 4 4 3 5 6 3 10 17 19 14 14 16 13 10 10 10 10 9 6 5 5 4 4 8 8 10 9 2 2 8 8 10 11 9 10 11 10 8 7 9 10 7 5 6 8 7 7 8 7 7 9 9 9 9 10 9 10 11 10
15 15 15 14 14 14 14 13 13 13 12 10 8 7 7 7 7 7 7 6 5 4 4 5 3 3 6 7 7 4 0 1 2 2 3 9 13 13 10 12 13 10 9 9 9 10 7 4 7 8 2 4 8 7 7 7 6 5 6 8 10 11 11 13 12 10 8 7 7 7 7 7 10 11 6 8 8 8 8 9 9 8 8 9 9 10 10 9
15 15 15 15 15 14 14 14 13 13 13 11 9 8 7 6 6 6 5 5 4 4 5 4 2 3 6 6 3 4 4 4 4 2 5 8 9 8 8 10 9 7 6 7 7 9 7 4 7 7 2 5 6 4 3 7 7 7 7 8 8 8 10 13 12 9 9 6 6 7 8 9 13 13 9 9 9 9 9 8 9 8 7 9 9 9 9 9
16 16 15 15 15 15 15 14 13 13 13 12 9 8 7 6 6 5 4 4 4 5 5 3 3 3 5 6 2 5 8 6 6 6 8 9 7 6 8 10 8 6 4 4 3 6 8 5 5 4 3 5 2 4 5 8 7 8 8 7 7 7 7 11 11 10 11 5 7 10 7 7 12 14 12 9 10 10 9 9 9 8 8 8 9 10 9 9
16 16 16 16 15 15 15 14 14 13 13 13 11 8 8 7 6 5 4 4 4 3 3 3 4 4 6 7 3 4 6 5 7 9 11 12 9 7 10 11 8 6 4 3 3 5 8 7 5 4 5 3 2 6 7 7 7 7 7 7 8 8 5 10 10 12 11 6 9 12 7 7 8 13 13 9 10 10 9 9 9 8 9 9 9 10 9 8
17 16 16 16 16 15 15 15 14 14 14 14 12 9 8 7 5 4 2 2 3 2 2 4 4 5 6 3 2 2 3 4 5 7 11 12 9 7 11 12 9 7 6 4 3 5 7 8 5 3 3 5 6 8 7 6 7 7 7 7 8 9 7 7 10 12 10 6 11 12 9 7 4 10 11 9 10 10 9 9 9 8 9 9 9 9 8 8
17 17 16 16 16 16 15 15 14 14 14 14 12 8 6 5 1 1 2 2 2 2 4 4 2 5 6 2 2 3 4 2 2 6 10 10 6 8 13 11 9 9 8 7 5 6 8 7 4 2 5 6 7 7 7 7 7 6 8 7 6 9 9 6 9 10 9 7 11 12 11 8 3 8 10 10 10 10 9 9 10 8 8 8 9 9 8 8
17 17 17 16 16 16 15 15 15 14 14 14 10 5 3 1 3 2 2 3 2 4 5 4 3 4 4 4 4 2 3 2 4 7 9 9 7 11 13 9 9 10 10 8 6 7 7 6 5 5 6 6 6 7 7 7 7 7 8 7 6 8 9 7 6 8 10 10 11 11 11 11 6 7 9 10 9 9 8 8 8 8 8 8 9 9 9 9
17 17 17 17 16 16 15 15 15 14 15 13 7 4 2 2 2 3 3 4 4 4 4 3 6 5 3 3 5 2 1 1 5 6 9 11 10 11 10 9 11 12 10 8 8 8 6 5 6 6 7 7 9 10 7 3 4 7 8 7 7 7 8 8 4 6 5 8 10 11 10 11 11 9 10 10 9 8 7 7 7 7 8 8 9 8 8 8
17 17 17 17 17 17 16 15 15 14 14 11 5 3 1 1 3 3 4 6 9 9 11 6 9 10 9 5 3 3 3 5 5 6 12 13 13 12 9 10 11 10 9 8 8 7 5 6 7 7 7 8 10 8 3 3 2 4 5 7 7 6 7 9 6 5 1 5 9 11 10 11 12 10 11 10 9 9 8 8 7 7 8 8 9 9 8 8
18 18 17 17 17 17 16 15 14 15 13 8 4 5 4 4 5 2 1 7 12 13 15 13 12 13 10 5 1 2 3 6 6 7 13 14 14 12 9 10 11 9 8 7 7 5 5 7 7 7 5 4 5 3 2 2 3 5 6 7 7 7 6 6 5 4 2 5 7 8 9 12 9 7 10 10 10 10 9 9 8 8 8 8 10 10 9 8
18 18 18 18 18 18 17 15 15 16 11 5 5 7 5 4 4 4 5 8 10 12 15 15 14 13 11 9 5 2 2 5 7 9 12 14 14 11 9 11 11 9 8 6 6 6 7 8 8 6 3 3 2 2 4 6 6 6 7 6 6 7 6 5 5 4 4 5 5 6 8 8 5 5 9 11 9 8 9 9 8 8 8 8 10 10 10 9
19 18 18 18 19 19 17 15 17 15 7 4 7 8 3 2 3 4 5 8 10 9 12 13 12 11 11 11 9 8 7 8 9 11 13 14 12 10 9 11 11 9 9 10 8 7 6 6 7 7 5 4 5 5 7 6 6 8 7 7 6 6 7 4 6 6 4 3 4 4 7 5 6 6 7 7 6 7 8 8 8 8 8 8 9 9 10 10
19 19 19 19 20 19 16 16 15 9 5 7 11 10 4 3 6 5 5 7 9 6 5 6 7 9 9 6 9 13 11 8 8 10 15 15 11 9 10 11 12 9 9 12 11 9 5 3 4 7 7 8 7 7 9 7 7 9 8 9 6 6 8 4 5 6 4 4 4 6 7 6 7 9 9 5 4 6 7 8 8 8 8 7 9 9 9 10
20 19 20 20 20 19 17 13 7 2 4 10 11 7 4 5 6 4 5 6 6 3 4 5 4 5 5 5 10 13 9 9 9 9 16 16 12 10 8 8 8 9 11 13 11 10 5 6 5 8 8 9 8 7 10 9 7 8 10 12 9 5 6 3 4 5 6 6 6 6 7 6 8 10 10 7 6 8 8 8 10 9 8 8 9 10 10 10
20 19 20 19 20 20 15 6 2 3 9 8 4 4 2 8 7 5 4 5 5 1 4 5 3 5 7 7 10 10 8 10 9 10 16 16 13 9 7 6 6 7 9 9 7 7 3 5 6 7 7 10 9 8 9 10 8 6 9 14 12 6 4 4 5 6 6 3 4 4 6 4 8 10 10 9 9 10 9 9 10 9 9 9 9 10 11 10
21 19 20 19 19 17 10 4 4 8 8 2 3 2 5 11 5 5 4 5 4 0 3 3 2 4 5 7 12 9 5 8 9 11 15 15 13 9 8 8 6 5 4 5 5 5 5 7 6 7 8 8 8 7 9 11 10 3 7 12 13 9 7 6 7 7 4 1 4 6 7 4 7 8 9 9 9 10 11 11 11 10 10 10 9 10 10 11
21 19 20 19 16 12 8 8 9 8 5 2 1 4 10 9 4 5 4 5 2 1 1 2 4 3 3 7 14 8 2 9 10 10 14 16 13 9 9 10 9 8 8 7 5 4 8 10 9 10 9 7 7 5 8 13 10 2 5 6 9 8 7 6 7 7 3 2 6 8 5 6 7 7 7 8 9 10 11 11 11 11 10 10 10 10 10 10
22 20 20 19 17 12 8 9 10 8 6 5 6 9 10 5 5 4 4 3 2 1 1 3 4 5 5 8 12 8 2 6 6 7 14 15 10 6 6 7 9 9 10 11 7 4 5 5 6 10 9 5 3 1 3 13 8 3 5 5 6 6 4 5 7 6 4 6 8 7 5 7 6 8 7 7 7 8 9 8 8 9 9 8 8 9 10 10
23 21 19 17 15 9 5 10 14 12 9 9 8 9 6 4 5 5 4 2 1 2 3 3 3 5 8 10 11 9 6 4 5 9 12 11 10 7 3 2 6 6 8 11 10 1 3 1 2 7 6 1 3 4 0 7 4 2 6 7 7 6 4 4 6 4 5 8 7 6 4 6 4 7 7 5 2 2 5 6 6 5 5 6 6 7 8 9
26 23 19 15 10 4 3 6 7 5 4 4 6 6 5 5 4 6 5 1 3 2 4 4 4 6 9 10 9 10 8 4 8 12 11 9 11 9 5 4 5 6 6 8 9 7 6 5 3 5 4 1 2 3 2 3 4 5 8 8 7 6 5 6 5 5 7 7 4 5 3 7 6 5 6 6 5 4 3 3 4 3 2 2 3 6 7 7
27 24 19 14 10 10 9 5 3 3 4 6 8 5 6 6 6 7 4 1 2 3 3 2 4 4 7 9 9 11 10 6 9 13 11 10 10 9 9 8 6 7 7 7 8 8 8 9 8 6 5 6 7 4 4 5 6 7 8 7 7 6 5 7 7 7 8 4 4 3 3 7 5 3 6 7 7 5 4 4 3 3 2 2 1 4 5 6
26 22 16 11 8 12 12 8 8 11 11 10 7 5 6 7 8 7 7 5 1 2 1 1 2 2 4 7 8 11 12 8 9 12 12 12 10 10 12 10 9 9 6 6 8 7 7 9 11 8 6 8 10 6 5 7 7 9 9 8 8 6 6 7 7 7 7 3 4 2 2 7 7 4 7 7 6 5 4 4 3 3 3 2 0 2 4 6
23 17 10 4 2 6 7 8 9 8 7 6 5 7 9 10 7 6 9 8 2 1 1 1 2 3 5 6 5 9 11 9 10 10 10 12 9 9 11 10 11 10 5 5 6 7 9 8 10 11 6 9 12 10 6 7 9 10 9 8 8 6 5 6 6 6 7 4 5 4 3 6 7 4 6 6 5 5 5 5 5 4 4 3 3 3 4 5
19 10 1 2 2 4 7 9 8 5 4 5 6 8 10 9 6 6 7 7 5 5 4 3 4 6 7 5 4 8 7 7 11 11 8 10 9 8 10 9 12 11 6 6 4 5 9 6 7 7 2 7 12 10 8 8 9 8 6 7 7 6 5 3 1 1 3 4 4 5 4 2 2 4 5 4 4 6 6 7 7 7 7 6 6 6 5 5
13 2 4 2 3 6 8 8 8 7 6 6 8 9 9 8 6 5 3 3 5 5 6 6 6 7 7 6 6 8 6 5 10 11 7 10 11 10 10 9 12 14 10 6 4 5 8 4 7 7 3 6 6 5 6 7 5 6 7 8 3 2 4 3 2 2 1 6 4 5 5 3 3 4 5 4 4 7 7 8 8 8 8 8 7 7 6 6
7 1 3 3 8 9 8 6 9 9 7 7 9 9 8 8 6 3 1 1 2 3 6 7 5 5 6 6 6 9 9 6 9 10 8 9 9 9 11 8 9 14 14 10 6 4 7 4 6 7 7 5 1 3 6 4 4 4 7 7 3 1 4 4 4 3 4 8 4 5 8 7 6 5 4 4 4 7 8 8 9 9 9 9 9 8 8 8
4 3 1 8 14 12 5 6 11 9 6 7 10 9 7 8 5 2 1 0 1 3 6 6 3 2 5 6 5 7 9 8 9 9 8 9 5 4 9 8 7 10 13 12 8 3 6 5 4 4 4 5 4 6 6 4 4 4 3 5 5 4 6 6 5 5 6 8 5 6 9 8 7 5 6 5 4 7 7 7 8 10 10 10 10 10 10 10
4 4 1 8 15 9 2 9 9 7 7 8 10 8 7 7 5 3 2 2 3 4 5 4 2 2 4 4 3 4 7 8 8 8 7 7 5 2 2 3 5 5 5 9 8 3 4 6 3 3 2 4 6 7 8 8 7 3 3 5 5 5 5 5 5 5 5 7 6 6 8 7 4 3 6 6 5 5 5 7 8 10 10 9 9 9 9 8
4 3 2 8 11 7 5 5 7 6 7 8 8 6 5 6 6 5 4 4 4 4 3 2 2 3 2 3 3 2 4 6 6 7 6 5 4 2 3 2 2 2 1 6 7 4 3 5 4 5 5 4 5 5 6 6 7 7 7 7 6 4 3 4 5 5 5 6 6 6 7 4 3 5 4 5 4 2 3 6 8 8 9 9 8 8 7 7
4 2 3 9 9 3 2 4 6 5 7 7 7 7 4 3 5 6 6 5 5 4 3 4 4 3 3 3 3 1 3 5 7 7 6 6 5 2 4 3 1 1 2 5 6 4 3 4 6 5 5 6 3 3 2 4 3 5 8 9 9 7 5 6 7 6 5 6 5 6 7 2 5 3 3 4 3 1 4 7 8 8 9 9 8 7 6 6
3 1 5 12 9 4 5 5 4 3 6 5 4 6 3 2 4 5 5 6 7 6 3 5 7 6 6 5 4 3 4 5 6 6 6 7 6 4 3 2 3 3 0 2 2 0 1 2 6 6 5 3 5 6 3 3 3 3 4 5 8 8 8 9 8 6 6 5 4 6 6 1 5 4 4 4 2 4 6 9 9 8 8 9 9 8 8 8
3 3 4 12 8 4 5 3 3 3 5 2 2 4 4 4 6 6 4 4 6 6 5 5 6 5 5 4 5 5 4 5 5 4 5 7 5 6 3 3 3 4 3 1 3 2 0 2 6 7 4 2 5 4 2 1 2 5 3 1 3 5 5 6 5 3 5 6 5 6 6 2 4 4 4 4 5 6 7 9 10 9 9 9 10 11 10 10
3 1 3 12 10 3 5 3 1 3 3 2 3 4 4 3 4 5 5 3 1 3 4 4 3 3 3 2 4 5 3 4 5 2 3 4 4 5 2 3 4 2 3 2 2 1 1 1 4 7 7 6 6 6 5 4 4 4 1 2 2 3 2 3 4 3 6 8 9 9 5 3 4 4 5 6 8 7 7 9 10 10 10 10 10 10 10 10
2 1 1 8 11 5 1 3 4 4 3 3 3 2 2 4 1 3 1 1 4 2 2 2 1 2 3 3 4 5 3 4 3 1 1 3 5 5 3 1 5 5 8 8 6 3 1 3 3 5 7 7 7 5 3 4 4 3 2 3 2 1 2 3 5 7 7 7 9 9 3 5 6 6 8 8 9 8 7 9 10 10 10 10 10 10 9 10
1 3 2 3 6 6 5 4 4 3 2 3 2 2 2 4 4 4 2 3 4 3 2 2 1 3 3 4 5 5 3 4 3 2 3 4 5 4 4 4 6 8 11 15 12 5 2 4 5 4 2 2 2 3 3 1 4 5 4 5 4 1 1 4 6 8 6 6 7 5 5 9 8 8 8 8 8 8 8 9 10 10 9 9 10 10 9 9
1 3 4 3 3 5 5 6 6 4 3 3 1 2 3 2 3 3 3 3 4 3 2 3 3 2 3 4 5 4 2 4 3 2 2 3 5 6 5 6 9 7 7 11 11 6 4 3 4 6 7 6 7 8 6 4 6 7 6 7 6 5 1 2 3 4 5 5 6 5 12 12 9 8 7 7 7 7 8 9 9 10 10 9 10 11 12 11
2 2 3 3 3 5 5 6 7 7 7 4 1 2 4 5 5 5 4 3 3 4 2 3 6 4 1 3 4 3 2 4 4 3 3 4 5 7 7 6 7 4 5 6 5 5 5 4 3 4 7 7 8 9 8 7 8 8 8 9 9 9 7 5 4 6 6 2 2 7 13 12 9 8 6 6 7 8 9 9 9 10 10 10 11 12 13 12
2 3 2 2 2 4 3 4 7 9 10 7 5 6 7 9 10 8 6 3 4 7 6 4 7 8 4 1 2 2 2 1 4 4 2 2 3 4 5 6 5 4 6 6 4 3 3 5 8 8 7 5 4 7 8 8 7 7 8 8 8 9 10 8 7 7 7 8 7 11 15 13 8 7 7 6 6 7 8 9 10 11 11 11 13 13 13 13
2 2 2 1 4 5 3 3 5 6 8 8 6 8 9 10 10 9 9 7 6 7 9 7 8 9 9 8 5 6 6 4 4 5 4 3 2 2 2 2 2 3 5 5 4 3 2 5 10 8 6 5 2 2 5 7 7 6 5 6 6 6 6 7 7 6 6 8 10 12 13 10 6 6 8 8 7 7 8 10 11 11 11 12 13 13 13 13
3 2 3 1 4 4 3 5 4 4 6 7 6 7 8 10 10 7 7 10 10 9 10 9 7 5 9 12 11 9 7 6 4 4 5 3 3 3 3 3 3 1 4 4 4 4 3 5 8 7 6 6 6 5 2 2 4 7 6 2 4 4 3 5 5 4 3 5 10 9 8 7 7 7 9 9 9 10 10 11 11 10 11 12 13 13 13 13
2 0 3 2 3 4 4 5 5 4 5 5 5 5 6 8 10 6 4 7 11 11 10 10 8 4 7 11 11 9 7 7 5 4 3 2 2 3 3 3 4 3 1 2 3 4 5 6 7 7 7 6 8 8 5 2 3 6 5 1 4 4 4 5 4 4 4 1 3 3 5 9 10 9 10 11 11 11 10 9 9 10 11 12 13 13 13 13
Wind_Direction
350 343 337 331 323 317 313 312 310 306 301 299 303 301 302 307 308 309 310 311 311 309 310 306 303 305 303 306 309 306 305 304 296 268 249 253 250 228 223 189 182 168 160 161 165 169 172 185 181 179 188 183 204 200 180 198 208 204 225 227 230 229 221 216 209 215 92 103 83 57 8 342 95 118 138 159 157 142 151 143 136 121 74 83 98 124 137 140
352 347 342 336 328 319 314 310 306 303 299 297 295 296 301 301 306 310 310 308 306 309 309 303 302 304 302 307 307 304 307 300 284 267 255 257 250 219 202 186 178 166 160 167 176 178 180 184 177 181 192 184 188 179 174 184 199 214 225 227 234 235 215 220 246 291 0 50 48 57 10 352 52 119 166 178 151 157 172 152 159 141 115 117 119 135 140 142
354 350 346 340 335 326 317 310 305 304 299 297 294 294 298 297 300 302 307 307 306 307 303 303 305 303 303 307 303 306 309 296 279 253 248 265 217 196 175 177 176 166 165 178 183 185 190 185 176 184 196 196 189 182 188 179 190 220 230 232 234 233 235 224 234 233 0 352 1 42 2 2 36 102 191 186 157 173 178 155 176 166 145 142 137 148 148 147
355 352 349 344 340 333 324 313 306 305 298 296 293 291 295 296 296 295 300 301 305 305 302 305 302 302 305 303 305 314 304 281 267 129 107 22 190 180 165 172 173 167 167 181 186 193 200 187 182 193 202 202 190 193 197 177 186 212 218 239 249 222 234 210 192 209 331 331 322 343 303 103 31 337 224 190 169 178 177 155 174 170 156 154 151 160 157 153
354 352 351 347 344 338 330 320 311 306 299 296 291 290 293 293 293 293 294 297 303 304 305 305 303 307 302 301 309 310 292 264 105 86 43 16 167 170 165 171 169 167 169 176 179 188 195 187 187 197 209 205 186 195 202 188 198 216 216 241 272 221 231 194 169 207 291 290 284 288 274 40 358 274 252 225 192 155 143 132 134 166 159 160 158 163 165 163
352 352 351 348 347 341 335 327 318 309 301 297 292 291 291 291 292 291 294 297 298 301 307 308 306 308 301 307 308 279 269 287 82 49 356 14 152 161 164 168 166 169 176 176 172 179 186 184 189 197 208 211 194 198 203 187 198 228 219 226 237 231 239 227 199 214 257 264 262 273 304 336 262 238 250 254 237 74 32 346 333 190 159 158 159 166 173 171
351 350 348 348 348 344 340 334 326 316 308 301 295 291 289 291 289 289 295 294 296 302 304 307 306 307 317 318 290 244 248 279 59 336 330 13 157 157 159 160 163 172 178 179 176 181 183 185 195 200 206 211 201 201 197 180 195 230 229 208 218 230 239 248 249 239 250 261 266 292 292 270 248 238 221 247 254 37 352 312 252 183 154 155 160 170 177 173
351 349 347 346 346 345 343 339 333 323 313 305 297 292 290 289 287 288 292 292 295 300 299 305 306 313 344 328 278 245 238 299 33 321 318 150 161 158 153 152 164 176 182 187 183 188 189 193 200 200 209 210 202 199 187 185 202 226 235 213 207 220 233 243 249 249 253 255 249 256 262 255 251 269 254 233 214 43 323 263 195 169 151 158 164 172 178 174
351 350 348 345 345 345 343 342 339 330 318 307 299 289 284 281 282 285 287 291 292 294 302 301 301 321 347 314 277 270 209 59 33 8 73 151 164 161 157 158 171 179 186 192 192 200 196 199 201 201 225 212 196 198 186 200 210 217 230 227 213 223 230 236 241 245 247 243 227 237 242 229 236 263 242 220 161 125 178 171 168 160 156 162 166 173 180 176
350 350 347 345 344 343 344 343 341 337 325 312 304 292 284 281 282 286 286 288 289 295 304 296 307 336 316 283 271 279 98 68 34 49 115 163 167 165 169 172 174 182 189 188 196 205 203 213 201 203 248 222 197 200 191 208 220 207 226 231 232 237 233 234 241 240 243 237 220 233 237 190 175 234 222 179 144 153 159 156 160 161 163 164 165 173 180 179
348 348 345 344 343 342 344 342 341 340 332 319 308 298 291 287 282 282 281 280 284 294 299 290 310 328 287 274 272 291 90 85 24 43 121 167 169 172 181 180 178 188 190 187 199 202 208 222 193 199 236 192 189 196 194 211 240 207 224 229 232 239 234 232 240 235 235 231 217 228 238 179 176 223 217 143 144 167 159 156 161 166 162 162 167 170 178 182
348 348 346 343 342 341 340 340 341 339 336 325 310 302 293 286 277 272 275 278 281 288 292 285 309 321 281 264 259 270 63 251 326 52 132 161 173 182 188 185 187 199 194 198 205 197 205 207 200 213 202 163 181 185 189 200 222 221 220 232 222 224 230 226 228 225 220 216 195 207 226 200 194 214 197 135 148 164 163 165 161 165 163 162 168 170 180 181
349 347 345 343 342 340 339 338 337 337 337 330 314 304 295 285 276 270 269 274 276 274 275 279 308 295 272 272 251 231 240 255 275 236 169 167 178 191 193 187 193 208 211 218 205 189 196 195 216 228 211 206 183 130 152 176 207 217 215 242 226 219 229 215 211 208 211 201 163 197 231 214 202 203 178 146 163 168 169 174 164 166 165 163 170 176 179 171
347 346 344 343 342 339 338 336 335 336 335 331 319 303 297 288 279 272 267 270 269 269 259 253 284 259 256 277 248 239 253 257 260 228 185 176 170 170 180 185 192 198 210 224 187 182 195 198 237 239 210 242 194 128 178 176 197 212 206 229 233 238 221 187 190 198 203 179 168 209 241 230 199 181 169 160 171 178 180 177 168 168 166 165 173 179 175 168
344 344 342 342 342 338 337 335 333 333 333 334 322 303 295 284 275 266 265 266 259 269 249 229 252 248 265 265 226 269 266 231 228 210 187 181 173 162 167 176 181 179 183 180 151 173 192 198 231 226 182 215 220 188 194 182 194 208 207 214 219 236 206 167 177 199 205 169 181 211 234 240 199 157 160 166 172 185 190 178 167 167 166 167 174 179 177 174
343 343 341 340 341 338 336 334 333 331 331 332 322 309 300 286 272 259 255 244 239 208 196 230 228 242 281 275 155 270 232 190 197 189 185 187 187 169 158 162 164 170 175 164 152 163 183 200 224 258 199 188 201 202 196 187 195 201 217 223 206 214 218 179 171 195 212 172 183 212 234 240 170 143 158 166 177 188 193 181 167 165 165 171 177 179 179 176
342 341 340 338 339 338 336 332 331 330 329 332 328 321 306 294 243 162 122 148 233 191 217 260 244 242 267 265 219 204 159 130 130 160 179 189 196 164 153 158 161 164 163 150 157 166 178 199 203 226 219 205 203 204 202 200 196 190 211 227 206 211 226 196 162 178 201 200 198 209 231 243 149 141 163 170 183 191 195 185 167 166 168 174 181 182 183 178
341 340 338 337 337 336 334 332 330 329 328 331 333 331 320 357 105 119 138 161 180 189 218 249 242 241 227 224 251 182 120 64 125 148 166 170 174 164 159 161 158 160 161 154 170 182 182 198 210 204 196 203 206 205 211 209 202 193 198 216 208 210 228 218 165 155 181 205 214 205 218 236 213 166 171 175 186 193 193 183 168 169 170 176 185 190 191 188
339 338 337 336 336 334 333 331 328 327 327 331 340 357 26 89 136 176 185 187 191 222 258 196 202 265 314 245 252 253 264 169 153 158 161 159 160 163 163 158 159 166 168 164 176 187 189 190 208 216 195 192 200 209 223 230 227 211 198 213 215 200 214 217 158 120 177 208 215 213 215 230 225 197 183 177 180 191 187 178 176 172 170 179 189 193 195 196
338 337 335 334 334 334 330 328 325 323 324 328 327 303 259 226 245 197 179 211 222 252 283 259 226 263 290 278 249 224 195 182 198 182 164 161 157 158 159 159 168 178 181 176 167 174 207 202 200 212 204 193 197 215 266 347 304 240 207 216 223 211 206 201 158 107 198 235 219 220 223 230 230 205 183 174 175 189 188 181 185 179 174 179 189 193 192 195
337 336 334 332 332 331 329 325 320 317 318 314 278 260 279 312 310 336 298 247 234 240 259 262 253 256 264 270 187 166 178 189 201 169 164 170 166 165 160 166 178 183 187 177 146 149 214 218 208 207 197 172 185 211 288 278 251 237 222 216 215 219 208 170 139 120 166 241 223 209 226 229 223 197 177 173 178 191 193 188 188 185 180 180 187 191 189 189
337 336 333 331 331 329 330 325 316 315 313 290 249 259 294 335 344 348 316 282 267 248 245 252 255 252 247 242 217 191 246 221 192 162 166 178 183 184 169 177 191 177 171 173 156 171 208 223 211 185 129 106 151 192 214 226 233 228 222 222 216 213 202 136 122 152 174 238 226 189 221 217 183 190 183 178 186 191 192 193 193 188 184 185 187 187 189 186
337 336 333 331 330 329 331 324 316 313 290 224 251 265 280 8 345 307 273 282 290 261 238 241 242 236 231 230 212 199 226 229 201 170 169 184 194 195 180 184 198 177 169 191 194 192 202 215 200 164 139 172 183 191 211 221 225 226 219 221 216 190 206 187 148 165 175 244 263 212 216 192 155 184 180 177 196 188 188 196 198 194 190 190 187 185 189 187
337 337 334 331 328 328 333 325 314 301 237 239 270 268 250 311 319 291 251 271 286 264 230 231 233 233 227 211 186 194 211 218 210 173 170 187 189 187 195 193 198 188 183 199 207 218 208 113 146 171 178 203 203 192 210 223 215 217 220 229 224 181 215 240 129 155 176 192 237 228 216 189 169 183 174 162 192 188 189 196 202 200 192 186 185 188 193 191
336 335 333 332 327 329 334 324 299 243 268 272 271 252 225 298 315 270 253 275 270 234 180 188 213 218 194 159 170 187 199 205 214 176 169 191 186 173 196 197 202 205 196 198 209 231 215 102 135 188 193 209 215 203 210 222 218 208 212 230 243 204 212 237 137 179 208 189 191 220 225 187 168 184 177 157 175 192 191 198 206 200 193 191 187 190 195 194
334 331 332 330 326 330 335 321 214 290 297 274 235 180 223 314 309 232 252 283 261 201 146 181 199 167 159 168 170 174 192 200 205 175 171 194 192 180 194 184 209 223 196 192 211 240 209 135 174 199 198 209 221 222 207 212 229 210 191 212 230 228 217 227 204 211 229 190 152 220 248 191 167 183 177 164 178 191 192 201 208 201 198 198 193 192 192 192
332 328 328 326 325 332 334 304 296 299 290 258 142 191 307 321 291 206 252 270 249 129 129 169 142 140 159 174 169 170 175 155 161 172 177 190 186 192 210 180 193 225 177 183 215 223 198 181 195 208 215 217 220 223 195 201 231 202 151 193 210 213 215 221 223 225 236 120 146 217 253 226 176 169 164 170 184 193 197 202 204 203 200 196 194 192 188 189
330 326 324 321 319 317 295 284 294 279 272 320 303 294 320 319 227 198 269 272 235 104 142 111 101 144 157 168 182 197 117 136 160 173 177 188 185 196 219 198 199 199 172 196 208 160 187 199 200 205 217 220 213 208 179 197 222 102 109 193 204 205 215 219 228 229 221 221 204 202 230 233 182 143 143 173 192 199 199 199 198 199 199 195 196 192 186 185
328 324 321 317 316 310 276 259 262 253 268 287 285 308 318 287 205 220 268 262 212 150 130 109 134 170 154 163 194 217 210 174 183 152 163 186 197 214 235 215 213 196 176 212 231 108 154 209 219 213 216 212 188 67 179 203 214 89 123 174 177 189 212 222 233 225 197 232 226 184 202 242 188 149 161 179 193 194 182 185 190 191 195 198 196 191 188 183
327 321 318 317 316 312 260 244 255 265 276 273 290 315 300 218 209 233 225 238 264 117 122 160 161 161 160 169 194 207 204 175 136 141 161 180 193 211 254 231 223 210 185 219 244 236 125 122 262 229 231 272 89 63 225 213 213 155 176 175 171 186 199 215 232 228 211 228 216 165 197 253 206 172 174 157 139 132 140 151 148 153 184 200 200 193 190 185
326 320 317 309 293 266 235 245 267 284 267 282 322 313 241 200 225 234 202 245 290 155 148 171 147 156 180 185 190 194 193 154 141 160 167 173 186 197 205 196 209 216 202 216 234 228 206 197 204 210 222 268 176 142 124 188 198 207 202 191 187 190 194 208 208 212 229 228 174 134 196 242 224 179 152 116 79 48 59 105 102 97 131 169 210 204 191 185
325 322 316 297 262 235 238 250 293 282 258 309 323 277 215 198 222 231 201 183 238 178 153 148 140 161 193 200 200 194 191 172 160 173 176 177 186 192 200 198 183 196 209 206 206 210 216 219 212 193 187 217 225 190 147 172 198 211 211 202 201 198 198 211 205 208 227 218 126 120 212 230 220 124 109 101 82 56 32 34 34 17 22 50 241 214 193 183
325 325 315 295 247 227 245 272 282 273 273 291 290 230 212 217 217 216 214 215 156 88 62 128 158 180 198 209 205 193 196 187 171 182 187 187 190 193 204 208 197 205 219 202 196 195 201 212 215 210 192 205 226 221 173 177 192 205 207 204 213 210 201 212 211 212 219 181 117 127 222 224 206 115 84 78 68 57 51 50 37 21 20 34 19 202 182 178
328 326 310 301 233 232 275 298 277 268 269 259 227 202 214 223 216 206 220 226 220 5 281 252 276 249 216 221 198 182 201 201 182 186 187 188 200 199 200 206 206 217 230 200 204 207 207 206 204 210 193 183 210 231 221 192 193 207 212 213 226 230 219 223 226 226 224 189 137 150 206 226 207 119 68 66 73 71 70 75 77 71 69 81 98 121 138 148
335 333 272 94 2 301 318 303 264 234 218 217 209 207 210 213 215 214 223 231 232 242 246 253 276 253 218 214 193 186 214 214 190 197 198 195 205 203 199 201 202 214 227 210 198 209 228 223 174 178 141 177 204 223 229 216 201 201 221 224 229 241 234 228 264 300 260 223 171 176 211 238 175 107 85 87 90 81 74 77 82 84 86 90 93 96 104 116
345 357 156 116 342 319 312 283 231 198 203 212 209 211 213 213 221 222 216 231 236 239 245 238 241 246 225 201 188 186 210 220 192 198 209 205 208 208 207 203 196 206 218 215 190 193 230 220 140 148 179 198 220 220 212 234 216 181 211 221 213 283 254 229 167 97 295 249 202 182 215 190 152 144 115 114 99 80 70 72 78 82 90 94 93 96 100 104
344 213 165 14 345 327 306 248 195 189 204 215 217 219 218 216 224 233 158 143 232 234 249 238 215 237 240 216 196 180 184 199 192 197 206 204 208 211 210 208 201 209 216 223 225 214 234 220 147 178 198 170 231 235 202 238 253 204 211 203 139 32 249 243 235 189 213 237 204 182 218 206 188 182 133 120 91 73 67 70 80 86 91 92 90 91 93 95
314 228 165 13 351 333 297 187 178 188 202 216 224 228 225 218 214 222 195 179 248 226 241 242 214 243 246 229 210 176 178 188 183 194 207 194 188 210 213 208 199 211 222 229 229 208 229 228 151 173 196 139 157 214 199 198 238 267 247 188 180 224 218 209 230 222 212 227 215 195 212 216 211 183 132 120 73 65 72 78 87 90 87 88 88 89 94 100
263 229 158 17 358 354 134 166 177 194 205 213 222 224 226 226 214 209 244 267 253 241 244 244 228 249 243 239 234 175 189 205 185 190 210 194 182 218 252 216 183 198 237 236 228 195 218 238 185 147 158 148 172 209 213 194 188 233 258 204 204 244 237 211 219 226 226 230 220 202 207 214 208 110 102 101 71 67 86 92 94 89 84 87 90 92 96 97
261 247 86 19 357 18 90 164 192 202 207 212 225 221 212 230 229 221 234 256 257 251 258 257 224 231 238 247 253 204 212 230 208 200 203 181 175 149 46 28 166 153 219 227 228 212 198 239 224 150 148 188 196 208 231 218 191 200 214 208 205 215 237 242 227 227 245 241 221 215 217 196 88 60 70 79 67 57 98 107 106 98 94 97 97 97 96 89
275 257 54 10 341 333 341 234 203 201 212 214 233 231 211 245 249 225 214 230 257 259 273 278 259 261 282 259 240 216 229 234 221 215 202 179 186 157 55 23 31 110 182 200 209 209 191 226 227 187 187 214 187 80 348 310 267 225 220 217 216 211 211 227 223 211 235 251 242 237 231 160 74 48 47 59 65 146 148 131 123 113 107 108 107 101 96 95
311 16 26 359 339 282 274 244 188 214 227 215 240 241 237 273 258 238 204 206 233 239 245 262 261 264 267 264 265 265 257 243 224 221 215 196 181 137 89 72 77 64 23 166 141 42 6 250 237 224 221 198 102 82 46 345 324 266 253 242 229 221 218 229 231 205 207 233 247 251 243 131 66 45 49 60 101 151 149 137 130 123 115 114 114 107 101 103
16 53 37 3 346 256 261 249 190 220 223 219 293 243 235 244 243 242 218 204 224 223 224 242 247 253 254 262 274 262 258 256 240 234 228 200 148 103 113 166 119 61 9 69 83 43 304 232 238 230 219 147 117 124 131 69 250 230 222 292 258 243 234 249 259 217 204 217 219 234 231 148 72 48 58 85 112 128 134 132 132 128 116 110 107 103 102 103
26 57 57 20 11 266 260 295 255 228 213 230 240 209 205 225 260 259 230 215 259 226 237 242 232 258 265 259 270 265 265 258 240 243 249 197 126 86 94 207 203 108 54 59 64 53 205 251 263 230 210 197 192 188 178 182 206 218 172 68 325 287 248 247 253 240 233 223 218 235 232 122 82 72 88 100 108 108 110 122 128 124 115 109 103 98 98 99
343 335 77 33 32 40 15 355 321 284 252 234 214 188 203 182 77 349 274 70 31 358 281 279 273 289 270 238 250 251 247 257 249 226 202 151 116 84 66 185 204 158 118 112 97 74 71 30 336 253 226 221 215 201 204 196 166 130 81 68 37 318 230 238 232 231 233 210 213 240 233 113 105 102 99 97 102 101 99 111 116 112 111 112 107 102 100 100
358 14 6 31 44 50 53 28 345 309 285 248 209 14 307 187 123 41 19 55 43 30 16 10 326 265 242 227 226 218 210 231 240 208 175 142 117 90 61 105 136 128 126 124 113 97 79 53 19 356 345 320 337 35 12 302 141 123 104 85 61 50 257 261 241 237 240 208 213 224 138 127 125 114 103 96 102 107 109 114 114 112 111 106 101 96 91 92
31 23 5 353 23 38 41 30 18 7 341 297 237 0 338 184 134 66 30 35 41 32 29 39 19 263 233 229 213 192 171 186 181 133 128 118 111 108 97 107 107 100 123 129 118 112 109 82 36 37 44 31 28 42 44 67 99 95 88 79 57 46 42 246 253 302 308 251 222 148 121 128 128 116 105 94 98 104 105 109 113 113 110 101 96 92 87 86
32 51 19 330 349 33 27 1 11 27 17 7 88 41 35 65 67 46 25 24 46 23 2 51 34 14 270 248 222 179 147 150 125 86 98 112 123 134 132 119 107 117 159 145 124 129 129 131 141 94 71 52 36 37 44 62 74 69 66 66 55 49 52 62 49 10 352 308 185 121 115 116 116 114 100 85 90 95 99 106 111 112 110 103 96 93 89 88
63 82 55 307 4 57 57 339 1 36 26 12 47 48 42 56 57 43 16 4 56 32 16 57 44 32 54 22 247 136 90 103 105 82 54 70 114 148 144 127 113 139 168 151 136 159 155 152 159 145 124 107 50 28 35 44 50 50 51 48 45 50 59 66 65 55 58 73 86 100 102 99 100 102 95 91 92 94 99 105 107 109 109 104 97 95 94 90
31 44 17 78 63 58 78 24 11 43 31 9 31 38 34 47 48 44 33 26 43 28 14 41 47 38 59 66 71 81 49 19 69 67 21 21 67 62 76 102 98 144 167 149 143 188 230 172 163 162 162 164 157 34 27 25 19 10 11 18 21 34 61 71 67 59 65 85 99 102 98 95 98 97 99 104 99 94 96 96 97 99 100 99 94 91 90 88
15 3 314 347 58 23 39 51 28 42 38 20 20 15 19 29 22 28 53 41 38 30 10 9 10 24 64 65 58 57 32 4 25 27 1 6 31 29 29 26 18 167 174 156 160 190 199 165 165 186 209 202 188 185 164 31 348 314 303 349 38 33 58 68 55 15 14 103 127 124 110 114 124 113 104 101 92 86 81 81 87 88 85 88 88 84 82 81
350 175 280 283 57 25 21 51 49 55 51 31 23 8 1 8 5 14 72 44 30 30 14 356 346 3 62 51 32 14 348 333 339 342 331 341 19 39 50 45 26 11 108 145 175 186 167 154 165 195 215 199 176 171 155 150 245 267 263 165 83 96 121 97 67 26 5 47 149 132 111 123 133 126 110 99 89 80 70 66 72 77 73 70 70 68 65 64